Preview of NWS' New Version of Forecast
This preview is not operational and should not be used for support decisions.
Latest weather observations around

Boyd Deep Canyon Reserve (UCNRS) (UCDE)

Using International System of Units (Switch to English Units)
Date/ Time (PDT) Wind (kph) Vis. (km) Weather Sky Cond. Temp (°C) Rel. Humidity Wind Chill (°C) Heat Index (°C) Pressure Precip. (cm)
Air Dwpt 6 hour Altimeter (hPa) Sea level (hPa) 1 hr 3 hr 6 hr
Max Min
Apr 22 13:00 NNE 14   Clear   28 -2     14%   27 1013.78        
Apr 22 12:50 NNE 19   Clear   28 -2     14%   27 1013.78        
Apr 22 12:40 NNE 14   Clear   28 -2     14%   27 1013.78        
Apr 22 12:30 NNE 13   Clear   28 -2     14%   26 1013.99        
Apr 22 12:20 NNE 11   Clear   27 -2     15%   26 1014.09        
Apr 22 12:10 N 13   Clear   27 -2     15%   26 1014.2        
Apr 22 12:00 NE 17   Clear   27 -2     15%   26 1014.3        
Apr 22 11:50 NNW 14   Clear   27 -2     15%   26 1014.3        
Apr 22 11:40 N 15   Clear   27 -2     15%   26 1014.5        
Apr 22 11:30 NNE 11   Clear   28 -2     14%   26 1014.4        
Apr 22 11:20 W 10   Clear   27 -2     15%   26 1014.5        
Apr 22 11:10 W 10   Clear   27 -1     16%   26 1014.5        
Apr 22 11:00 WSW 9   Clear   27 -2     15%   26 1014.71        
Apr 22 10:50 NNW 8   Clear   27 -2     15%   26 1014.81        
Apr 22 10:40 W 10   Clear   26 -2     16%   25 1014.81        
Apr 22 10:30 WNW 9   Clear   26 -2     16%   25 1014.71        
Apr 22 10:20 NW 6   Clear   26 -2     16%   25 1014.71        
Apr 22 10:10 W 8   Clear   26 -2     16%   25 1014.81        
Apr 22 10:00 NNW 9   Clear   26 -1     17%   25 1014.81        
Apr 22 09:50 WSW 9   Clear   26 -1     17%   25 1014.92        
Apr 22 09:40 W 10   Clear   25 -1     18%   24 1015.02        
Apr 22 09:30 WNW 8   Clear   25 -1     18%   24 1015.02        
Apr 22 09:20 W 12   Clear   24 -1     19%   23 1015.12        
Apr 22 09:10 NW 12   Clear   24 -1     19%   23 1015.12        
Apr 22 09:00 NW 9   Clear   24 -1     19%   23 1015.02        
Apr 22 08:50 W 9   Clear   24 -1     19%   23 1014.92        
Apr 22 08:40 WNW 10   Clear   24 -1     19%   23 1014.81        
Apr 22 08:30 WNW 9   Clear   24 -1     19%   23 1014.81        
Apr 22 08:20 W 14   Clear   24 -1     19%   23 1014.81        
Apr 22 08:10 WNW 11   Clear   24 -1     19%   23 1014.92        
Apr 22 08:00 WSW 8   Clear   24 -1     19%   23 1014.92        
Apr 22 07:50 WSW 7   Clear   24 -1     19%   23 1014.81        
Apr 22 07:40 W 8   Clear   24 -1     19%   23 1014.71        
Apr 22 07:30 WSW 8   Clear   23 -1     20%   22 1014.71        
Apr 22 07:20 WSW 8   Clear   23 -1     20%   22 1014.61        
Apr 22 07:10 WSW 7   Clear   23 -1     20%   22 1014.5        
Apr 22 07:00 WSW 7   Clear   22 -1     22%   20 1014.4        
Notice The following observation data may not be complete
Apr 22 06:50 SW 10   Clear            %     1014.3        
Notice The following observation data may not be complete
Apr 22 06:40 WSW 13   Clear            %     1014.09        
Notice The following observation data may not be complete
Apr 22 06:30 WSW 10   Clear            %     1013.99        
Notice The following observation data may not be complete
Apr 22 06:20 WSW 10   Clear            %     1013.89        
Notice The following observation data may not be complete
Apr 22 06:10 W 11   Clear            %     1013.68        
Apr 22 06:00 WSW 8   Clear   22        %     1013.47        
Notice The following observation data may not be complete
Apr 22 05:50 W 7   Clear            %     1013.27        
Notice The following observation data may not be complete
Apr 22 05:40 W 10   Clear            %     1013.17        
Notice The following observation data may not be complete
Apr 22 05:30 SW 11   Clear            %     1012.96        
Notice The following observation data may not be complete
Apr 22 05:20 SW 11   Clear            %     1012.86        
Notice The following observation data may not be complete
Apr 22 05:10 SW 11   Clear            %     1012.75        
Apr 22 05:00 SW 13   Clear   21        %     1012.75        
Apr 22 04:50 SW 11   Clear   21        %     1012.65        
Apr 22 04:40 WSW 10   Clear   22        %     1012.65        
Apr 22 04:30 WSW 8   Clear   22        %     1012.75        
Apr 22 04:20 SW 12   Clear   22        %     1012.75        
Apr 22 04:10 SW 12   Clear   22        %     1012.75        
Apr 22 04:00 WSW 10   Clear   22        %     1012.86        
Apr 22 03:50 WSW 7   Clear   22 0     23%   21 1012.86        
Apr 22 03:40 WSW 9   Clear   22 0     24%   21 1012.86        
Apr 22 03:30 SW 11   Clear   22 0     24%   21 1012.86        
Apr 22 03:20 SW 11   Clear   21 0     24%   20 1012.86        
Apr 22 03:10 SW 11   Clear   21 0     24%   20 1012.86        
Apr 22 03:00 SW 10   Clear   21        %     1012.86        
Apr 22 02:50 SW 13   Clear   21        %     1012.75        
Apr 22 02:40 SW 12   Clear   21        %     1012.75        
Apr 22 02:30 SW 13   Clear   21        %     1012.75        
Apr 22 02:20 SSW 6   Clear   18 4     39%     1012.75        
Apr 22 02:10 WSW 5   Clear   17 6     46%     1012.86        
Apr 22 02:00 N 2   Clear   17 6     48%     1012.96        
Apr 22 01:50 ENE 4   Clear   17 6     48%     1012.86        
Apr 22 01:40 NE 4   Clear   17 7     50%     1012.86        
Apr 22 01:30 SE 6   Clear   17 7     50%     1013.06        
Apr 22 01:20 SSW 14   Clear   17 7     52%     1012.96        
Apr 22 01:10 E 5   Clear   16 7     55%     1013.17        
Apr 22 01:00 NE 5   Clear   16 7     53%     1012.65        
Apr 22 00:50 ENE 1   Clear   16 7     53%     1012.34        
Apr 22 00:40 Calm   Clear   17 7     52%     1012.34        
Apr 22 00:30 E 1   Clear   17 7     51%     1012.45        
Apr 22 00:20 E 2   Clear   17 7     50%     1012.45        
Apr 22 00:10 E 3   Clear   17 7     49%     1012.45        
Apr 22 00:00 NE 3   Clear   18 6     48%     1012.34        
Apr 21 23:50 ENE 3   Clear   18 6     48%     1012.34        
Apr 21 23:40 Calm   Clear   17 6     48%     1012.34        
Apr 21 23:30 Calm   Clear   18 6     48%     1012.24        
Apr 21 23:20 Calm   Clear   18 6     46%     1012.24        
Apr 21 23:10 ENE 1   Clear   18 6     46%     1012.24        
Apr 21 23:00 ESE 1   Clear   18 6     45%     1012.34        
Apr 21 22:50 SSE 1   Clear   18 6     45%     1012.34        
Apr 21 22:40 NNE 2   Clear   19 7     45%     1012.34        
Apr 21 22:30 NNE 2   Clear   19 7     44%     1012.34        
Apr 21 22:20 NNE 3   Clear   19 6     43%     1012.24        
Apr 21 22:10 N 2   Clear   19 7     44%     1012.24        
Apr 21 22:00 SSW 1   Clear   19 6     43%     1012.14        
Apr 21 21:50 E 2   Clear   20 6     42%     1012.14        
Apr 21 21:40 N 4   Clear   20 6     41%     1011.93        
Apr 21 21:30 NNE 9   Clear   20 6     39%     1011.83        
Apr 21 21:20 N 9   Clear   21 5     35%   20 1011.62        
Apr 21 21:10 SSW 5   Clear   22 4     30%   21 1011.42        
Apr 21 21:00 WNW 5   Clear   22 4     31%   21 1011.42        
Apr 21 20:50 N 7   Clear   21 4     33%   21 1011.42        
Apr 21 20:40 N 5   Clear   22 5     34%   21 1011.42        
Apr 21 20:30 N 5   Clear   22 5     33%   21 1011.31        
Apr 21 20:20 NE 4   Clear   22 5     33%   21 1011.21        
Apr 21 20:10 NNE 3   Clear   22 5     33%   21 1011        
Apr 21 20:00 NE 3   Clear   22 5     32%   21 1010.8        
Apr 21 19:50 NNW 6   Clear   23 5     31%   22 1010.7        
Apr 21 19:40 N 10   Clear   23 5     30%   22 1010.59        
Apr 21 19:30 N 11   Clear   24 4     28%   23 1010.39        
Apr 21 19:20 NNW 7   Clear   24 3     26%   23 1010.28        
Apr 21 19:10 NNE 7   Clear   24 3     25%   23 1010.28        
Apr 21 19:00 NNE 8   Clear   24 3     24%   24 1010.18        
Apr 21 18:20 NNE 10   Clear   26 1     20%   25 1010.08        
Apr 21 18:10 N 9   Clear   27 1     18%   26 1010.18        
Apr 21 18:00 NNE 9   Clear   27 0     17%   26 1010.18        
Notice The following observation data may not be complete
Apr 21 17:50     Clear            %              
Apr 21 17:40 NNE 6   Clear   28 0     16%   27 1010.18        
Apr 21 17:30 N 4   Clear   28 0     16%   26 1010.28        
Apr 21 17:20 NNE 9   Clear   27 0     17%   26 1010.28        
Apr 21 17:10 N 6   Clear   28 0     17%   26 1010.49        
Apr 21 17:00 NNE 9   Clear   28 0     17%   26 1010.49        
Apr 21 16:50 N 8   Clear   27 1     18%   26 1010.59        
Apr 21 16:40 NNE 9   Clear   28 1     18%   26 1010.49        
Apr 21 16:30 NNE 10   Clear   27 1     18%   27 1010.59        
Apr 21 16:20 NNE 9   Clear   27 1     18%   26 1010.7        
Apr 21 16:10 NNE 10   Clear   27 1     18%   26 1010.7        
Apr 21 16:00 N 9   Clear   28 1     18%   26 1010.7        
Apr 21 15:50 NNE 11   Clear   27 1     19%   26 1010.8        
Apr 21 15:40 NNE 8   Clear   27 2     20%   26 1010.9        
Apr 21 15:30 NNE 7   Clear   27 2     20%   26 1011        
Apr 21 15:20 NNE 9   Clear   27 2     20%   26 1011.21        
Apr 21 15:10 NE 8   Clear   27 2     21%   26 1011.42        
Apr 21 15:00 NNE 9   Clear   26 2     21%   26 1011.62        
Notice The following observation data may not be complete
Apr 21 14:50     Clear            %              
Apr 21 14:40 NNE 6   Clear   27 3     21%   26 1011.83        
Apr 21 14:30 N 5   Clear   26 3     22%   26 1012.03        
Apr 21 14:20 WNW 4   Clear   26 3     22%   25 1012.14        
Apr 21 14:10 NE 5   Clear   26 3     23%   25 1012.34        
Apr 21 14:00 NNE 9   Clear   25 3     23%   25 1012.45        
Apr 21 13:30 NNE 10   Clear   25 3     24%   24 1012.86        
Apr 21 13:20 NNE 13   Clear   24 3     25%   23 1013.06        
Apr 21 13:10 NNE 11   Clear   24 3     25%   23 1013.17        
Apr 21 13:00 NE 10   Clear   24 3     25%   23 1013.27        
Apr 21 12:50 NNE 9   Clear   24 3     25%   23 1013.37        
Apr 21 12:40 N 6   Clear   24 3     26%   23 1013.47        
Apr 21 12:30 NNE 12   Clear   24 3     26%   23 1013.58        
Apr 21 12:20 NNE 13   Clear   23 3     27%   22 1013.78        
Apr 21 12:10 NNE 11   Clear   23 3     26%   23 1013.78        
Apr 21 12:00 NNE 10   Clear   24 3     26%   23 1013.99        
Apr 21 11:40 NNE 14   Clear   23 4     28%   22 1013.99        
Apr 21 11:30 NE 9   Clear   23 4     28%   22 1013.89        
Apr 21 11:20 ENE 6   Clear   23 4     29%   22 1013.78        
Apr 21 11:10 ENE 7   Clear   23 4     30%   22 1013.68        
Apr 21 11:00 NE 4   Clear   23 4     30%   22 1013.68        
Apr 21 10:40 NNE 7   Clear   22 4     31%   21 1013.68        
Apr 21 10:30 SE 8   Clear   22 4     32%   21 1013.58        
Apr 21 10:20 ENE 9   Clear   22 4     31%   21 1013.47        
Apr 21 10:10 ENE 6   Clear   22 4     31%   21 1013.37        
Apr 21 10:00 NE 6   Clear   21 4     33%     1013.27        
Apr 21 09:20 N 7   Clear   21 3     32%     1012.34        
Apr 21 09:10 NNE 7   Clear   20 3     32%     1012.24        
Apr 21 09:00 NNE 7   Clear   20 3     32%     1012.24        
Apr 21 08:50 NE 9   Clear   20 3     32%     1012.24        
Apr 21 08:40 E 10   Clear   20 3     32%     1012.14        
Apr 21 08:30 E 10   Clear   19 3     34%     1012.14        
Apr 21 08:20 E 6   Clear   20 3     33%     1012.24        
Apr 21 08:10 WNW 4   Clear   20 3     32%     1012.03        
Apr 21 08:00 NE 6   Clear   18 3     36%     1012.03        
Apr 21 07:50 ENE 13   Clear   18 3     38%     1011.93        
Apr 21 07:40 E 6   Clear   18 4     39%     1011.83        
Apr 21 07:30 ENE 4   Clear   17 4     41%     1011.83        
Apr 21 07:20 SE 8   Clear   17 4     42%     1011.73        
Apr 21 07:10 SE 3   Clear   15 4     48%     1011.73        
Apr 21 07:00 NW 2   Clear   14 4     53%     1011.52        
Notice The following observation data may not be complete
Apr 21 06:50     Clear            %              
Apr 21 06:40 WSW 4   Clear   13 4     57%     1011.31        
Apr 21 06:30 ENE 3   Clear   13 5     57%     1011.21        
Apr 21 06:20 SSW 5   Clear   13 4     57%     1011        
Apr 21 06:10 WNW 3   Clear   13 5     57%     1010.9        
Apr 21 06:00 S 4   Clear   13 5     57%     1010.9        
Apr 21 05:50 SW 2   Clear   12 5     60%     1010.8        
Apr 21 05:40 SW 4   Clear   12 5     61%     1010.8        
Apr 21 05:30 WSW 2   Clear   12 5     61%     1010.7        
Apr 21 05:20 E 3   Clear   13 5     60%     1010.7        
Apr 21 05:10 NE 1   Clear   13 5     59%     1010.7        
Apr 21 05:00 SW 2   Clear   13 5     58%     1010.7        
Apr 21 04:50 SW 2   Clear   13 5     58%     1010.7        
Apr 21 04:40 SSW 3   Clear   14 5     56%     1010.59        
Apr 21 04:30 SSW 6   Clear   14 6     58%     1010.7        
Apr 21 04:20 SSE 2   Clear   14 5     57%     1010.8        
Apr 21 04:10 E 4   Clear   14 5     57%     1010.49        
Apr 21 04:00 ENE 6   Clear   14 5     57%     1010.49        
Apr 21 03:50 E 4   Clear   14 5     55%     1010.59        
Apr 21 03:40 E 8   Clear   14 6     56%     1010.7        
Apr 21 03:30 NE 5   Clear   14 5     57%     1010.59        
Apr 21 03:20 ENE 2   Clear   14 5     57%     1010.39        
Apr 21 03:10 ENE 2   Clear   14 6     57%     1010.49        
Apr 21 03:00 E 3   Clear   14 6     56%     1010.7        
Apr 21 02:50 ENE 5   Clear   15 6     56%     1010.7        
Apr 21 02:40 ENE 5   Clear   15 6     55%     1010.7        
Apr 21 02:30 S 2   Clear   15 6     53%     1010.7        
Apr 21 02:20 N 7   Clear   15 5     52%     1010.59        
Apr 21 02:10 ENE 4   Clear   16 4     47%     1010.39        
Apr 21 02:00 SW 3   Clear   16 5     48%     1010.8        
Apr 21 01:50 W 4   Clear   16 5     48%     1010.9        
Apr 21 01:40 SSW 3   Clear   16 5     48%     1010.8        
Apr 21 01:30 E 2   Clear   16 5     47%     1010.9        
Apr 21 01:20 SW 3   Clear   16 5     47%     1011        
Apr 21 01:10 SSE 3   Clear   16 5     48%     1011        
Apr 21 01:00 NW 4   Clear   17 5     48%     1011        
Apr 21 00:50 NNW 8   Clear   17 6     48%     1011        
Apr 21 00:40 ESE 6   Clear   17 5     47%     1011.11        
Apr 21 00:30 NNE 5   Clear   17 5     46%     1011.11        
Apr 21 00:20 NNE 5   Clear   17 5     45%     1011.11        
Apr 21 00:10 N 7   Clear   18 4     41%     1011        
Apr 21 00:00 NE 8   Clear   18 4     38%     1011        
Apr 20 23:50 SW 14   Clear   21        %     1010.49        
Apr 20 23:40 SE 5   Clear   18 3     37%     1010.49        
Apr 20 23:30 E 4   Clear   18 3     38%     1010.59        
Apr 20 23:20 NE 4   Clear   18 3     36%     1010.59        
Apr 20 23:10 SSE 4   Clear   19 2     34%     1010.59        
Apr 20 23:00 N 6   Clear   18 3     35%     1010.7        
Apr 20 22:50 N 3   Clear   18 3     35%     1010.7        
Apr 20 22:40 SW 4   Clear   18 3     36%     1010.7        
Apr 20 22:30 WSW 5   Clear   19 3     35%     1010.8        
Apr 20 22:20 NNW 4   Clear   19 3     34%     1010.59        
Apr 20 22:10 W 3   Clear   19 3     34%     1010.49        
Apr 20 22:00 WNW 3   Clear   20 3     34%     1010.39        
Apr 20 21:50 W 7   Clear   20 4     35%     1010.28        
Apr 20 21:40 N 7   Clear   20 4     35%     1010.18        
Apr 20 21:30 NNW 9   Clear   20 4     33%     1009.87        
Apr 20 21:20 W 10   Clear   22 -2     21%   20 1009.77        
Apr 20 21:10 WNW 9   Clear   21 2     28%   20 1009.56        
Apr 20 21:00 W 11   Clear   21 2     27%   20 1009.46        
Apr 20 20:50 SW 7   Clear   21 1     27%   20 1009.36        
Apr 20 20:40 W 6   Clear   22 2     27%   20 1009.36        
Apr 20 20:30 WNW 3   Clear   22 2     28%   20 1009.26        
Apr 20 20:20 S 7   Clear   22 1     24%   21 1009.15        
Apr 20 20:10 SSW 11   Clear   23 -2     19%   22 1008.95        
Apr 20 20:00 WSW 15   Clear   23 -3     18%   22 1008.74        
Apr 20 19:50 SSW 16   Clear   23 -3     18%   22 1008.43        
Apr 20 19:40 S 15   Clear   23 -2     19%   22 1008.43        
Apr 20 19:30 S 11   Clear   23 -2     19%   22 1008.53        
Apr 20 19:20 S 14   Clear   23 -2     19%   22 1008.64        
Apr 20 19:10 SSE 9   Clear   24 -4     15%   23 1008.64        
Apr 20 19:00 S 11   Clear   24 -5     14%   23 1008.53        
Apr 20 18:50 SW 13   Clear   24 -6     13%   23 1008.43        
Apr 20 18:40     Clear   25 -5     14%   23 1008.33        
Apr 20 18:30 SSW 15   Clear   25 -6     12%   24 1008.23        
Apr 20 18:20 S 17   Clear   26 -7     11%   25 1008.43        
Apr 20 18:10 S 16   Clear   27 -7     10%   26 1008.53        
Apr 20 18:00 S 16   Clear   27 -8     9%   26 1008.43        
Apr 20 17:50     Clear   28        %     1008.33        
Apr 20 17:40 SSW 17   Clear   28 -8     9%   27 1008.23        
Apr 20 17:30 SSW 17   Clear   28 -8     9%   27 1008.33        
Apr 20 17:20 SW 17   Clear   29 -6     10%   27 1008.43        
Apr 20 17:10 SSW 18   Clear   29 -6     10%   27 1008.12        
Apr 20 17:00 SSW 13   Clear   30 -5     10%   27 1008.12        
Apr 20 16:50 S 7   Clear   29 -4     11%   27 1008.43        
Apr 20 16:40 NNW 9   Clear   29 -3     12%   27 1008.43        
Apr 20 16:30 N 10   Clear   29 -3     12%   27 1008.23        
Apr 20 16:20 N 13   Clear   29 -4     12%   27 1008.23        
Apr 20 16:10 N 13   Clear   29 -3     13%   27 1008.33        
Apr 20 16:00 NNE 12   Clear   29 -2     13%   27 1008.43        
Apr 20 15:50 NNE 9   Clear   28 -3     13%   27 1008.64        
Apr 20 15:40 NNE 9   Clear   28 -3     13%   27 1008.74        
Apr 20 15:30 NNE 11   Clear   28 -2     14%   27 1008.95        
Apr 20 15:20 WNW 14   Clear   29 -5     11%   27 1008.95        
Apr 20 15:10     Clear   29 -6     10%   27 1008.43        
Apr 20 15:00 SSW 22   Clear   31 -5     10%   28 1008.84        
Apr 20 14:50 SW 19   Clear   31 -5     10%   28 1009.26        
Apr 20 14:40 WSW 21   Clear   30 -5     10%   28 1009.56        
Apr 20 14:30     Clear   30 -3     11%   28 1009.56        
Apr 20 14:20     Clear   30 -4     11%   28 1009.77        
Apr 20 14:10     Clear   30 -3     12%   28 1009.67        
Apr 20 14:00 SW 25   Clear   29 -3     12%   28 1009.77        
Apr 20 13:50 SW 25   Clear   30 -3     12%   28 1009.87        
Apr 20 13:40 SW 30   Clear   29 -3     12%   27 1009.98        
Apr 20 13:30 SW 28   Clear   29 -4     11%   27 1010.08        
Apr 20 13:20     Clear   30 -4     11%   28 1009.98        
Apr 20 13:10 SSW 22   Clear   30 -4     11%   28 1009.87        
Apr 20 13:00 WNW 11   Clear   29 -2     13%   27 1009.98        
Apr 20 12:50 N 12   Clear   29 -2     13%   28 1009.87        
Apr 20 12:40 NNE 12   Clear   28 -3     13%   27 1009.98        
Apr 20 12:30 NNE 9   Clear   28 -2     14%   27 1009.98        
Apr 20 12:20 N 13   Clear   29 -1     14%   27 1009.98        
Apr 20 12:10 ENE 11   Clear   29 -2     13%   27 1009.98        
Apr 20 12:00 E 7   Clear   29 -1     14%   27 1010.18        
Apr 20 11:50 NE 6   Clear   29 0     16%   27 1010.28        
Apr 20 11:40 NW 10   Clear   29 0     16%   27 1010.28        
Apr 20 11:30 N 9   Clear   28 1     17%   27 1010.18        
Apr 20 11:20 NNE 6   Clear   28 1     18%   26 1010.28        
Apr 20 11:10 NNE 9   Clear   27 2     19%   26 1010.18        
Apr 20 11:00 N 8   Clear   27 2     20%   26 1010.18        
Apr 20 10:50 NE 8   Clear   26 2     20%   25 1010.18        
Apr 20 10:40 NE 5   Clear   26 2     21%   25 1010.28        
Apr 20 10:30 NE 6   Clear   26 3     23%   25 1010.39        
Apr 20 10:20 NE 11   Clear   25 3     23%   24 1010.28        
Apr 20 10:10 NE 12   Clear   25 2     22%   25 1010.18        
Apr 20 10:00 NNE 12   Clear   25 2     22%   24 1010.18        
Apr 20 09:50 NNE 16   Clear   25 2     22%   24 1009.87        
Apr 20 09:40 N 12   Clear   26 1     20%   25 1009.67        
Apr 20 09:30 NNE 13   Clear   26 0     19%   25 1009.46        
Apr 20 09:20 NE 11   Clear   25 2     22%   24 1009.46        
Apr 20 09:10 ENE 5   Clear   24 3     25%   23 1009.56        
Apr 20 09:00 E 4   Clear   23 4     30%   22 1009.77        
Apr 20 08:50 NE 6   Clear   22 5     33%   21 1009.67        
Apr 20 08:40 NNE 8   Clear   22 5     33%   21 1009.67        
Apr 20 08:30 NNE 7   Clear   23 5     31%   22 1009.56        
Apr 20 08:20 ENE 3   Clear   22 5     33%   21 1009.56        
Apr 20 08:10 NE 3   Clear   21 5     34%   20 1009.46        
Apr 20 08:00 ENE 5   Clear   21 5     37%     1009.36        
Apr 20 07:50 NE 11   Clear   22 3     30%   21 1009.26        
Apr 20 07:40 NNE 5   Clear   22 3     28%   21 1009.26        
Apr 20 07:30 W 3   Clear   22 4     31%   21 1009.15        
Apr 20 07:20 E 3   Clear   20 4     34%     1009.05        
Apr 20 07:10 NE 4   Clear   18 4     40%     1009.05        
Apr 20 07:00 SSE 4   Clear   17 5     43%     1009.15        
Apr 20 06:50 SW 4   Clear   18 4     42%     1009.26        
Apr 20 06:40 ENE 5   Clear   18 4     41%     1009.36        
Apr 20 06:30 NNE 4   Clear   17 5     43%     1009.26        
Apr 20 06:20 E 5   Clear   17 5     45%     1008.95        
Apr 20 06:10 ESE 10   Clear   20 4     34%     1008.74        
Apr 20 06:00 SSW 19   Clear   23        %     1008.53        
Apr 20 05:50 SSW 20   Clear   23 -4     16%   21 1008.53        
Apr 20 05:40 SSW 18   Clear   22 -3     18%   21 1008.53        
Apr 20 05:30 SSW 10   Clear   18 4     38%     1008.64        
Apr 20 05:20 ESE 6   Clear   18 6     45%     1008.64        
Apr 20 05:10 ENE 9   Clear   18 5     44%     1008.43        
Apr 20 05:00 E 9   Clear   18 6     45%     1008.33        
Apr 20 04:50 NE 6   Clear   18 5     43%     1008.23        
Apr 20 04:40 NNE 9   Clear   18 5     42%     1008.33        
Apr 20 04:30 E 7   Clear   19 3     36%     1008.53        
Apr 20 04:20 SW 3   Clear   20 2     31%     1008.53        
Apr 20 04:10 E 4   Clear   20 2     30%     1008.64        
Apr 20 04:00 NNE 7   Clear   21 2     28%   20 1008.84        
Apr 20 03:50 S 11   Clear   22 -1     21%   21 1008.74        
Apr 20 03:40 S 12   Clear   24 -4     16%   23 1008.74        
Apr 20 03:30 SSW 21   Clear   24 -6     13%   23 1008.64        
Apr 20 03:20     Clear   24 -5     14%   23 1008.53        
Apr 20 03:10     Clear   24 -3     16%   23 1008.53        
Apr 20 03:00 SSW 24   Clear   24 -3     17%   23 1008.64        
Apr 20 02:50 SW 23   Clear   24 -2     18%   23 1008.74        
Apr 20 02:40 SW 19   Clear   24 -1     19%   23 1008.74        
Apr 20 02:30 SW 13   Clear   24 -2     18%   23 1008.74        
Apr 20 02:20 SW 17   Clear   24 -2     18%   23 1008.84        
Apr 20 02:10 SSW 19   Clear   24 -3     17%   23 1008.84        
Apr 20 02:00 SSW 15   Clear   24 -2     17%   23 1008.95        
Apr 20 01:50 WSW 13   Clear   24 -2     17%   23 1008.95        
Apr 20 01:40 WSW 15   Clear   24 -2     18%   23 1009.15        
Apr 20 01:30 W 16   Clear   24 -2     18%   23 1009.36        
Apr 20 01:20 WSW 26   Clear   25 -2     17%   24 1009.46        
Apr 20 01:10 WSW 24   Clear   25 -2     16%   24 1009.36        
Apr 20 01:00 SW 18   Clear   25 -4     14%   24 1009.15        
Apr 20 00:50 SW 20   Clear   26        %     1009.15        
Apr 20 00:40 SW 25   Clear   26 -3     15%   24 1009.36        
Apr 20 00:30 SW 25   Clear   26 -2     16%   25 1009.56        
Apr 20 00:20 SW 23   Clear   26 -2     16%   25 1009.67        
Apr 20 00:10 SSW 21   Clear   25 -2     16%   24 1009.67        
Apr 20 00:00 SSW 20   Clear   26 -1     17%   25 1009.87        
Notice The following observation data may not be complete
Apr 19 23:50     Clear            %              
Apr 19 23:40 SSW 16   Clear   26 -2     16%   25 1009.98        
Apr 19 23:30     Clear   26 -1     17%   25 1009.87        
Apr 19 23:20     Clear   26 -1     18%   25 1009.87        
Apr 19 23:10     Clear   26 -1     18%   25 1009.77        
Apr 19 23:00     Clear   26 -1     18%   25 1009.67        
Apr 19 22:50     Clear   26 0     18%   25 1009.67        
Apr 19 22:40     Clear   26 -1     17%   25 1009.67        
Apr 19 22:30     Clear   26 -2     16%   25 1009.87        
Apr 19 22:20 SSW 19   Clear   26 -2     16%   25 1009.98        
Apr 19 22:10 S 12   Clear   26        %     1009.98        
Apr 19 22:00 SSW 10   Clear   27        %     1010.08        
Apr 19 21:50 WSW 15   Clear   27        %     1009.98        
Apr 19 21:40 WSW 14   Clear   27        %     1009.98        
Apr 19 21:30 SW 12   Clear   27        %     1010.08        
Apr 19 21:20 SSW 17   Clear   27        %     1010.08        
Apr 19 21:10 SW 16   Clear   27        %     1010.08        
Apr 19 21:00 SSW 24   Clear   28 -2     14%   26 1009.77        
Apr 19 20:50     Clear   28 -2     14%   26 1009.56        
Apr 19 20:40     Clear   28 -2     14%   27 1009.46        
Apr 19 20:30     Clear   28 -2     14%   27 1009.36        
Apr 19 20:20 SSW 27   Clear   28 -1     15%   27 1009.36        
Apr 19 20:10 SSW 21   Clear   28 -2     14%   27 1009.56        
Apr 19 20:00 SSW 21   Clear   28 -2     14%   27 1009.46        
Apr 19 19:50 SSW 18   Clear   29 -1     14%   27 1009.36        
Apr 19 19:40 SSW 17   Clear   29 -1     14%   28 1009.15        
Apr 19 19:30 SW 18   Clear   30 -2     13%   28 1008.95        
Apr 19 19:20 SW 18   Clear   30 -1     13%   28 1008.95        
Apr 19 19:10 SW 14   Clear   31 -1     13%   29 1008.95        
Apr 19 19:00 WSW 8   Clear   31 -1     13%   29 1008.84        
Apr 19 18:50 SE 8   Clear   31        %     1008.84        
Apr 19 18:40 ESE 10   Clear   31        %     1008.84        
Apr 19 18:30 ESE 9   Clear   31        %     1008.84        
Apr 19 18:20 E 10   Clear   32 -5     9%   29 1008.84        
Apr 19 18:10 E 11   Clear   33 -6     8%   30 1008.95        
Apr 19 18:00 E 11   Clear   33 -6     8%   30 1009.05        
Apr 19 17:50 E 10   Clear   33 -4     9%   30 1009.15        
Apr 19 17:40 ESE 11   Clear   33 -4     9%   30 1009.15        
Apr 19 17:30 ESE 9   Clear   33 -4     9%   30 1009.26        
Apr 19 17:20 ESE 9   Clear   33 -4     9%   30 1009.26        
Apr 19 17:10 E 9   Clear   33 -5     8%   30 1009.36        
Apr 19 17:00 ENE 9   Clear   33 -5     8%   30 1009.36        
Apr 19 16:50 ENE 11   Clear   33 -5     8%   30 1009.36        
Apr 19 16:40 E 11   Clear   33 -5     8%   30 1009.56        
Apr 19 16:30 E 12   Clear   34 -5     8%   30 1009.67        
Apr 19 16:20 ENE 11   Clear   34 -5     8%   30 1009.67        
Apr 19 16:10 ENE 14   Clear   33 -5     8%   30 1009.77        
Apr 19 16:00 ENE 12   Clear   33 -5     8%   30 1009.87        
Apr 19 15:50 ENE 7   Clear   33 -4     9%   30 1010.18        
Apr 19 15:40 ENE 10   Clear   33 -4     9%   30 1010.39        
Apr 19 15:30 E 12   Clear   34 -4     9%   31 1010.59        
Apr 19 15:20 ENE 11   Clear   33 -4     9%   30 1010.7        
Apr 19 15:10 ENE 12   Clear   34 -4     9%   31 1011        
Apr 19 15:00 ENE 10   Clear   33 -4     9%   30 1011.31        
Notice The following observation data may not be complete
Apr 19 14:50     Clear            %              
Apr 19 14:40 E 14   Clear   33 -4     9%   30 1011.73        
Apr 19 14:30 E 12   Clear   33 -4     9%   30 1011.93        
Apr 19 14:20 ENE 15   Clear   33 -4     9%   30 1012.03        
Apr 19 14:10 ENE 9   Clear   33 -4     9%   30 1012.24        
Apr 19 14:00 ENE 11   Clear   32 -4     10%   29 1012.34        
Notice The following observation data may not be complete
Apr 19 13:50     Clear            %              
Apr 19 13:40 ENE 11   Clear   32 -5     9%   29 1012.65        
Apr 19 13:30 ENE 12   Clear   32 -5     9%   29 1012.75        
Apr 19 13:20 ENE 13   Clear   32 -5     9%   29 1012.86        
Apr 19 13:10 NE 12   Clear   32 -5     9%   30 1012.96        
May 15 09:50 N 8   Clear   25 6     31%   24 1012.55        
May 15 09:20 N 5   Clear   24 6     32%   23 1012.45        
May 15 05:00 Calm   Clear   17 8     55%     1009.67        
May 14 23:50 NE 5   Clear   21 7     40%     1009.77        
May 14 18:50 N 7   Clear   27 6     25%   26 1008.23        
May 14 18:00 NNW 12   Clear   29 3     19%   28 1008.02        
May 14 16:20 N 7   Clear   30        %     1008.64        
May 14 15:50 NNW 9   Clear   30 -3     12%   28 1008.84        
May 14 14:30 NE 8   Clear   29 -2     13%   27 1009.98        
May 14 10:40 N 10   Clear   25 5     27%   24 1011.42        
May 14 09:30 N 6   Clear   24 4     27%   23 1011.21        
May 14 09:10 N 6   Clear   23 4     30%   22 1011.21        
May 14 09:00 N 6   Clear   22 5     33%   21 1011.21        
May 14 06:30 NE 4   Clear   15 6     56%     1009.98        
May 14 03:30 NNE 4   Clear   16 8     56%     1009.46        
May 14 00:40 Calm   Clear   18 7     47%     1009.77        
May 13 18:30 NNW 12   Clear   26 5     26%   25 1009.26        
May 13 16:50 NNW 9   Clear   27 4     23%   26 1009.56        
May 13 16:00 NNW 9   Clear   26 4     25%   25 1009.77        
May 13 12:40 NE 11   Clear   25 5     27%   24          
May 13 07:40 NNW 4   Clear   18 6     44%     1011.21        
Notice The following observation data may not be complete
May 13 07:20     Clear            %              
May 13 07:10 NNE 5   Clear   19 6     43%     1010.7        
May 13 03:00 Calm   Clear   16 6     50%     1009.26        
May 13 02:10 NNE 5   Clear   17 5     44%     1008.64        
May 12 16:00 NNW 12   Clear   26 4     25%   25 1007.92        
May 12 12:10 NNW 11   Clear   24 5     29%   23 1009.56        
May 12 11:40 N 9   Clear   23 5     31%   23 1009.67        
May 12 00:40     Clear   19 1     31%     1004.01        
May 11 23:10 W 11   Clear   19 5     40%     1004.21        
May 11 22:30 WSW 20   Clear   19 2     32%     1004.31        
May 11 22:00     Clear   19 3     36%              
May 11 18:00     Clear   27 3     21%   26 1002.05        
Notice The following observation data may not be complete
May 11 11:20     Clear            %